Date String (YYYY-MM-DD hh:mm:ss) UTC,Instrument flags,Ambient pressure (hPa),Sample flow (lpm),Bypass flow (lpm),Sample temperature (°C),Ambient temperature (°C),ASC tube jacket temperature (°C),LED temperature (°C),Box temperature (°C),Sample RH (%),Span deviation,Mass concentration (μg/m³),Mass concentration (μg/m³),Mass concentration (μg/m³)
DateTimeUTC,F1_M11,P_M11,Q1_M11,Q2_M11,T1_M11,T2_M11,T3_M11,T4_M11,T5_M11,U1_M11,ZSPAN_M11,X0_M11,X2_M11,X1_M11
2022-12-07 20:00:00,,0825.9,5.00,0.00,25.4,24.3,00.0,34.2,27.3,09.6,0000.0,0009.56,0004.27,0003.73
2022-12-07 20:01:00,,0826.0,5.00,0.00,25.4,24.3,00.0,34.2,27.3,09.5,0000.0,0010.81,0004.28,0003.74
2022-12-07 20:02:00,,0826.0,4.99,0.00,25.4,24.3,00.0,34.2,27.4,09.5,0000.0,0011.12,0004.29,0003.76
2022-12-07 20:03:00,,0826.0,5.00,0.00,25.4,24.3,00.0,34.2,27.4,09.5,0000.0,0011.21,0004.30,0003.78
2022-12-07 20:04:00,,0825.9,5.00,0.00,25.4,24.2,00.0,34.2,27.3,09.5,0000.0,0011.11,0004.32,0003.80
2022-12-07 20:05:00,,0825.9,5.00,0.00,25.4,24.3,00.0,34.2,27.3,09.8,0000.0,0010.78,0004.37,0003.83
2022-12-07 20:06:00,,0825.9,5.00,0.00,25.5,24.3,00.0,34.2,27.4,09.6,0000.0,0010.86,0004.40,0003.85
2022-12-07 20:07:00,,0825.9,5.00,0.00,25.4,24.3,00.0,34.2,27.3,09.5,0000.0,0010.96,0004.45,0003.88
2022-12-07 20:08:00,,0825.9,5.01,0.00,25.5,24.3,00.0,34.2,27.4,09.4,0000.0,0010.81,0004.45,0003.90
2022-12-07 20:09:00,,0825.8,5.00,0.00,25.5,24.3,00.0,34.2,27.4,09.4,0000.0,0010.57,0004.46,0003.92
2022-12-07 20:10:00,,0825.8,5.00,0.00,25.5,24.3,00.0,34.2,27.4,09.5,0000.0,0010.51,0004.46,0003.95
2022-12-07 20:11:00,,0825.8,5.00,0.00,25.5,24.3,00.0,34.2,27.4,09.6,0000.0,0010.77,0004.50,0003.97
2022-12-07 20:12:00,,0825.8,5.00,0.00,25.5,24.3,00.0,34.2,27.4,09.5,0000.0,0010.52,0004.51,0003.98
2022-12-07 20:13:00,,0825.8,5.00,0.00,25.5,24.3,00.0,34.3,27.4,09.5,0000.0,0011.11,0004.54,0003.99
2022-12-07 20:14:00,,0825.8,5.00,0.00,25.5,24.3,00.0,34.3,27.4,09.6,0000.0,0011.61,0004.56,0004.00
2022-12-07 20:15:00,,0825.8,5.00,0.00,25.5,24.3,00.0,34.3,27.4,09.5,0000.0,0012.49,0004.59,0004.02
2022-12-07 20:16:00,,0825.8,5.00,0.00,25.5,24.3,00.0,34.3,27.4,09.4,0000.0,0013.52,0004.62,0004.03
2022-12-07 20:17:00,,0825.9,5.01,0.00,25.5,24.3,00.0,34.3,27.4,09.5,0000.0,0013.82,0004.66,0004.05
2022-12-07 20:18:00,,0825.9,5.00,0.00,25.5,24.4,00.0,34.3,27.4,09.6,0000.0,0014.04,0004.69,0004.07
2022-12-07 20:19:00,,0825.8,5.01,0.00,25.5,24.4,00.0,34.3,27.4,09.5,0000.0,0014.18,0004.75,0004.08
2022-12-07 20:20:00,,0825.8,5.00,0.00,25.5,24.4,00.0,34.3,27.4,09.5,0000.0,0014.48,0004.82,0004.11
2022-12-07 20:21:00,,0825.9,5.00,0.00,25.6,24.4,00.0,34.3,27.5,09.4,0000.0,0014.59,0004.88,0004.14
2022-12-07 20:22:00,,0825.9,5.00,0.00,25.6,24.4,00.0,34.3,27.4,09.3,0000.0,0014.42,0004.90,0004.17
2022-12-07 20:23:00,,0825.9,4.99,0.00,25.6,24.4,00.0,34.3,27.5,09.3,0000.0,0013.57,0004.92,0004.21
2022-12-07 20:24:00,,0825.9,5.00,0.00,25.6,24.4,00.0,34.4,27.5,09.3,0000.0,0013.07,0004.96,0004.24
2022-12-07 20:25:00,,0825.9,5.00,0.00,25.6,24.4,00.0,34.4,27.5,09.2,0000.0,0013.04,0004.99,0004.27
2022-12-07 20:26:00,,0825.9,5.00,0.00,25.6,24.4,00.0,34.4,27.5,09.2,0000.0,0012.23,0005.02,0004.31
2022-12-07 20:27:00,,0825.9,5.00,0.00,25.6,24.4,00.0,34.4,27.5,09.2,0000.0,0011.48,0005.06,0004.33
2022-12-07 20:28:00,,0825.9,5.00,0.00,25.6,24.4,00.0,34.4,27.5,09.4,0000.0,0011.36,0005.08,0004.35
2022-12-07 20:29:00,,0825.9,5.00,0.00,25.6,24.4,00.0,34.4,27.5,09.4,0000.0,0011.57,0005.08,0004.37
2022-12-07 20:30:00,,0825.8,5.01,0.00,25.6,24.4,00.0,34.4,27.6,09.2,0000.0,0012.26,0005.09,0004.39
2022-12-07 20:31:00,,0825.8,5.01,0.00,25.6,24.4,00.0,34.4,27.6,09.2,0000.0,0012.27,0005.09,0004.41
2022-12-07 20:32:00,,0825.8,5.00,0.00,25.6,24.5,00.0,34.4,27.6,09.4,0000.0,0013.02,0005.09,0004.41
2022-12-07 20:33:00,,0825.8,5.00,0.00,25.7,24.5,00.0,34.4,27.6,09.2,0000.0,0012.89,0005.10,0004.42
2022-12-07 20:34:00,,0825.8,5.00,0.00,25.7,24.5,00.0,34.4,27.6,09.1,0000.0,0012.89,0005.07,0004.42
2022-12-07 20:35:00,,0826.1,4.99,0.00,25.7,24.5,00.0,34.4,27.5,09.2,0000.0,0013.70,0005.06,0004.42
2022-12-07 20:36:00,,0826.2,5.00,0.00,25.7,24.5,00.0,34.4,27.5,09.2,0000.0,0013.45,0005.10,0004.42
2022-12-07 20:37:00,,0825.9,5.00,0.00,25.7,24.5,00.0,34.4,27.5,09.3,0000.0,0013.39,0005.09,0004.41
2022-12-07 20:38:00,,0825.7,5.00,0.00,25.7,24.6,00.0,34.5,27.6,09.3,0000.0,0013.30,0005.07,0004.41
2022-12-07 20:39:00,,0825.9,5.00,0.00,25.7,24.6,00.0,34.5,27.6,09.1,0000.0,0013.44,0005.08,0004.41
2022-12-07 20:40:00,,0826.1,5.01,0.00,25.7,24.6,00.0,34.5,27.6,09.2,0000.0,0013.18,0005.09,0004.42
2022-12-07 20:41:00,,0826.1,5.00,0.00,25.7,24.6,00.0,34.5,27.7,09.1,0000.0,0013.37,0005.18,0004.44
2022-12-07 20:42:00,,0826.1,5.00,0.00,25.8,24.6,00.0,34.5,27.7,09.1,0000.0,0013.62,0005.19,0004.46
2022-12-07 20:43:00,,0825.7,5.01,0.00,25.8,24.6,00.0,34.5,27.6,09.2,0000.0,0012.76,0005.16,0004.46
2022-12-07 20:44:00,,0825.7,5.00,0.00,25.8,24.6,00.0,34.5,27.6,09.1,0000.0,0012.38,0005.15,0004.48
2022-12-07 20:45:00,,0825.7,4.99,0.00,25.8,24.6,00.0,34.5,27.7,09.2,0000.0,0012.45,0005.19,0004.48
2022-12-07 20:46:00,,0825.7,4.99,0.00,25.8,24.6,00.0,34.5,27.7,09.2,0000.0,0011.92,0005.25,0004.50
2022-12-07 20:47:00,,0825.7,5.00,0.00,25.8,24.6,00.0,34.5,27.7,09.1,0000.0,0012.07,0005.23,0004.53
2022-12-07 20:48:00,,0825.7,5.00,0.00,25.8,24.6,00.0,34.6,27.7,09.1,0000.0,0012.79,0005.25,0004.55
2022-12-07 20:49:00,,0825.7,5.00,0.00,25.8,24.6,00.0,34.6,27.7,09.1,0000.0,0013.68,0005.29,0004.58
2022-12-07 20:50:00,,0825.7,5.00,0.00,25.8,24.6,00.0,34.6,27.7,09.1,0000.0,0013.63,0005.32,0004.60
2022-12-07 20:51:00,,0825.7,5.00,0.00,25.8,24.6,00.0,34.6,27.7,09.2,0000.0,0014.00,0005.36,0004.61
2022-12-07 20:52:00,,0825.7,5.00,0.00,25.8,24.7,00.0,34.6,27.7,09.1,0000.0,0013.41,0005.33,0004.59
2022-12-07 20:53:00,,0825.7,5.00,0.00,25.8,24.7,00.0,34.6,27.7,09.1,0000.0,0012.90,0005.29,0004.58
2022-12-07 20:54:00,,0826.0,5.00,0.00,25.8,24.7,00.0,34.6,27.7,09.0,0000.0,0012.92,0005.33,0004.58
2022-12-07 20:55:00,,0826.1,4.99,0.00,25.9,24.7,00.0,34.6,27.7,09.0,0000.0,0013.69,0005.36,0004.59
2022-12-07 20:56:00,,0825.9,5.00,0.00,25.9,24.7,00.0,34.6,27.8,09.1,0000.0,0013.85,0005.36,0004.59
2022-12-07 20:57:00,,0826.0,5.00,0.00,25.9,24.8,00.0,34.6,27.8,09.1,0000.0,0014.15,0005.35,0004.59
2022-12-07 20:58:00,,0826.0,5.00,0.00,25.9,24.8,00.0,34.7,27.8,09.3,0000.0,0014.16,0005.37,0004.59
2022-12-07 20:59:00,,0826.1,5.00,0.00,25.9,24.8,00.0,34.7,27.8,09.3,0000.0,0013.84,0005.41,0004.62
